Location: Anciles
(42.5833°N, 0.5167°E)
Time: 02:27:00
(UTC+00:00)

Aureole 1 Rocket - Pass Details

Date: 10 December 2019
Orbit: 378 x 1382 km, 73.9° (Epoch: 26 January)

Event Time Altitude Azimuth Distance (km) Brightness Sun altitude
Rises 17:06:14 0° 170° (S) 2,257 6.2 -7.6°
Reaches altitude 10° 17:08:30 10° 153° (SSE) 1,388 4.9 -8.0°
Maximum altitude 17:10:48 21° 102° (ESE) 933 3.5 -8.4°
Enters shadow 17:12:51 12° 54° (NE) 1,336 4.2 -8.8°
